When you browse on this site, cookies collect data to enhance your experience and personalize the content and advertising you see.
Visit our Privacy Policy to learn more. By continuing to use the site, you agree to this use of cookies and data.
  • în România
  • Lista ţărilor
  • Pe 7 zile
  • Temperatura apei
  • Meteo pe hartă
  • Widget-uri
  • user-avatar
    Intrare

    Meteo pe oră la Basse Santa Su

    Astăzi, 24 August, Sâmbătă

    Timp Temperatura Precipitaţii Vânt Presiune Umiditate
    00:00 +25°C° 0 mm 2 m/s 759 mmHg 95%
    01:00 +25°C° 0 mm 2 m/s 759 mmHg 95%
    02:00 +25°C° 0 mm 2 m/s 758 mmHg 96%
    03:00 +25°C° 0 mm 2 m/s 758 mmHg 96%
    04:00 +25°C° 0 mm 2 m/s 758 mmHg 97%
    05:00 +24°C° 0 mm 1 m/s 758 mmHg 97%
    06:00 +25°C° 0 mm 2 m/s 759 mmHg 93%
    07:00 +26°C° 0 mm 3 m/s 759 mmHg 90%
    08:00 +27°C° 0 mm 4 m/s 759 mmHg 86%
    09:00 +29°C° 0 mm 4 m/s 759 mmHg 80%
    10:00 +30°C° 0 mm 4 m/s 759 mmHg 74%
    11:00 +33°C° 0 mm 4 m/s 758 mmHg 69%
    12:00 +33°C° 0.6 mm 4 m/s 758 mmHg 69%
    13:00 +33°C° 0.6 mm 3 m/s 757 mmHg 70%
    14:00 +34°C° 0.6 mm 3 m/s 757 mmHg 70%
    15:00 +31°C° 3.1 mm 3 m/s 756 mmHg 77%
    16:00 +30°C° 3.1 mm 3 m/s 756 mmHg 83%
    17:00 +28°C° 3.1 mm 3 m/s 756 mmHg 89%
    18:00 +28°C° 2.9 mm 3 m/s 757 mmHg 91%
    19:00 +27°C° 2.9 mm 3 m/s 757 mmHg 92%
    20:00 +26°C° 2.9 mm 4 m/s 758 mmHg 94%
    21:00 +26°C° 0.8 mm 4 m/s 758 mmHg 95%
    22:00 +26°C° 0.8 mm 4 m/s 758 mmHg 95%
    23:00 +26°C° 0.8 mm 4 m/s 758 mmHg 95%

    Mâine, 25 August, Duminică

    Timp Temperatura Precipitaţii Vânt Presiune Umiditate
    00:00 +26°C° 0 mm 4 m/s 758 mmHg 96%
    01:00 +26°C° 0 mm 3 m/s 757 mmHg 96%
    02:00 +26°C° 0 mm 2 m/s 757 mmHg 96%
    03:00 +26°C° 0.1 mm 2 m/s 757 mmHg 96%
    04:00 +26°C° 0.1 mm 2 m/s 757 mmHg 96%
    05:00 +26°C° 0.1 mm 2 m/s 757 mmHg 96%
    06:00 +26°C° 0.2 mm 3 m/s 757 mmHg 94%
    07:00 +27°C° 0.2 mm 3 m/s 757 mmHg 92%
    08:00 +27°C° 0.2 mm 3 m/s 758 mmHg 91%
    09:00 +27°C° 1.9 mm 3 m/s 758 mmHg 90%
    10:00 +28°C° 1.9 mm 2 m/s 758 mmHg 90%
    11:00 +28°C° 1.9 mm 1 m/s 758 mmHg 90%
    12:00 +27°C° 6.4 mm 2 m/s 757 mmHg 92%
    13:00 +27°C° 6.4 mm 2 m/s 757 mmHg 94%
    14:00 +26°C° 6.4 mm 2 m/s 757 mmHg 96%
    15:00 +25°C° 4.2 mm 2 m/s 756 mmHg 96%
    16:00 +25°C° 4.2 mm 2 m/s 756 mmHg 96%
    17:00 +24°C° 4.2 mm 3 m/s 756 mmHg 95%
    18:00 +24°C° 0.7 mm 2 m/s 757 mmHg 96%
    19:00 +24°C° 0.7 mm 2 m/s 757 mmHg 97%
    20:00 +24°C° 0.7 mm 2 m/s 758 mmHg 97%
    21:00 +24°C° 1 mm 2 m/s 758 mmHg 98%
    22:00 +24°C° 1 mm 2 m/s 758 mmHg 98%
    23:00 +24°C° 1 mm 2 m/s 759 mmHg 98%

    Poimâine, 26 August, Luni

    Timp Temperatura Precipitaţii Vânt Presiune Umiditate
    00:00 +24°C° 1.2 mm 2 m/s 758 mmHg 98%
    01:00 +24°C° 1.2 mm 1 m/s 758 mmHg 98%
    02:00 +24°C° 1.2 mm 1 m/s 757 mmHg 98%
    03:00 +24°C° 0.7 mm 1 m/s 757 mmHg 98%
    04:00 +24°C° 0.7 mm 1 m/s 757 mmHg 98%
    05:00 +24°C° 0.7 mm 1 m/s 757 mmHg 98%
    06:00 +24°C° 0.4 mm 1 m/s 758 mmHg 98%
    07:00 +24°C° 0.4 mm 1 m/s 758 mmHg 98%
    08:00 +24°C° 0.4 mm 1 m/s 759 mmHg 98%
    09:00 +24°C° 0.1 mm 1 m/s 758 mmHg 97%
    10:00 +24°C° 0.1 mm 1 m/s 758 mmHg 97%
    11:00 +25°C° 0.1 mm 1 m/s 758 mmHg 96%
    12:00 +25°C° 0 mm 1 m/s 758 mmHg 96%
    13:00 +25°C° 0 mm 1 m/s 757 mmHg 96%
    14:00 +25°C° 0 mm 1 m/s 757 mmHg 95%
    15:00 +25°C° 0 mm 1 m/s 757 mmHg 95%
    16:00 +23°C° 0 mm 0 m/s 756 mmHg 94%
    17:00 +23°C° 0 mm 0 m/s 756 mmHg 94%
    18:00 +23°C° 0 mm 0 m/s 757 mmHg 93%
    19:00 +23°C° 0 mm 0 m/s 757 mmHg 93%
    20:00 +25°C° 0 mm 1 m/s 758 mmHg 93%
    21:00 +25°C° 0 mm 1 m/s 758 mmHg 93%
    22:00 +25°C° 0 mm 1 m/s 758 mmHg 93%
    23:00 +25°C° 0 mm 1 m/s 758 mmHg 93%

    27 August, Marţi

    Timp Temperatura Precipitaţii Vânt Presiune Umiditate
    00:00 +25°C° 0 mm 1 m/s 758 mmHg 93%
    01:00 +25°C° 0 mm 1 m/s 757 mmHg 94%
    02:00 +24°C° 0 mm 1 m/s 757 mmHg 94%
    03:00 +24°C° 0 mm 1 m/s 757 mmHg 95%
    04:00 +24°C° 0 mm 1 m/s 757 mmHg 95%
    05:00 +24°C° 0 mm 1 m/s 757 mmHg 96%
    06:00 +25°C° 0 mm 1 m/s 758 mmHg 95%
    07:00 +25°C° 0 mm 1 m/s 758 mmHg 94%
    08:00 +25°C° 0 mm 1 m/s 758 mmHg 94%
    09:00 +27°C° 0.4 mm 1 m/s 758 mmHg 86%
    10:00 +29°C° 0.4 mm 1 m/s 758 mmHg 79%
    11:00 +31°C° 0.4 mm 1 m/s 758 mmHg 72%
    12:00 +31°C° 0.4 mm 1 m/s 758 mmHg 70%
    13:00 +31°C° 0.4 mm 1 m/s 757 mmHg 69%
    14:00 +31°C° 0.4 mm 1 m/s 757 mmHg 67%
    15:00 +30°C° 0.9 mm 2 m/s 756 mmHg 73%
    16:00 +29°C° 0.9 mm 2 m/s 756 mmHg 80%
    17:00 +28°C° 0.9 mm 2 m/s 756 mmHg 86%
    18:00 +27°C° 0.4 mm 2 m/s 757 mmHg 88%
    19:00 +26°C° 0.4 mm 2 m/s 757 mmHg 90%
    20:00 +25°C° 0.4 mm 2 m/s 758 mmHg 92%
    21:00 +25°C° 0 mm 2 m/s 758 mmHg 93%
    22:00 +25°C° 0 mm 2 m/s 758 mmHg 94%
    23:00 +25°C° 0 mm 2 m/s 759 mmHg 95%

    28 August, Miercuri

    Timp Temperatura Precipitaţii Vânt Presiune Umiditate
    00:00 +25°C° 0 mm 2 m/s 758 mmHg 96%
    01:00 +24°C° 0 mm 2 m/s 758 mmHg 96%
    02:00 +24°C° 0 mm 2 m/s 757 mmHg 97%
    03:00 +24°C° 0 mm 2 m/s 757 mmHg 97%
    04:00 +24°C° 0 mm 1 m/s 758 mmHg 97%
    05:00 +24°C° 0 mm 1 m/s 758 mmHg 97%
    06:00 +25°C° 0 mm 1 m/s 758 mmHg 94%
    07:00 +26°C° 0 mm 2 m/s 758 mmHg 91%
    08:00 +27°C° 0 mm 2 m/s 759 mmHg 88%
    09:00 +28°C° 1.3 mm 2 m/s 758 mmHg 84%
    10:00 +29°C° 1.3 mm 2 m/s 758 mmHg 80%
    11:00 +30°C° 1.3 mm 2 m/s 758 mmHg 77%
    12:00 +31°C° 1.8 mm 2 m/s 757 mmHg 75%
    13:00 +31°C° 1.8 mm 2 m/s 756 mmHg 74%
    14:00 +31°C° 1.8 mm 1 m/s 756 mmHg 73%
    15:00 +31°C° 1.5 mm 2 m/s 756 mmHg 77%
    16:00 +30°C° 1.5 mm 2 m/s 756 mmHg 81%
    17:00 +30°C° 1.5 mm 2 m/s 756 mmHg 85%
    18:00 +28°C° 0.8 mm 2 m/s 756 mmHg 87%
    19:00 +27°C° 0.8 mm 2 m/s 757 mmHg 89%
    20:00 +26°C° 0.8 mm 2 m/s 758 mmHg 91%
    21:00 +26°C° 0.1 mm 2 m/s 758 mmHg 92%
    22:00 +26°C° 0.1 mm 2 m/s 758 mmHg 93%
    23:00 +25°C° 0.1 mm 2 m/s 759 mmHg 94%

    29 August, Joi

    Timp Temperatura Precipitaţii Vânt Presiune Umiditate
    00:00 +25°C° 0 mm 2 m/s 758 mmHg 95%
    01:00 +25°C° 0 mm 2 m/s 758 mmHg 95%
    02:00 +25°C° 0 mm 1 m/s 757 mmHg 96%
    03:00 +25°C° 0.1 mm 1 m/s 757 mmHg 96%
    04:00 +25°C° 0.1 mm 1 m/s 758 mmHg 96%
    05:00 +25°C° 0.1 mm 1 m/s 758 mmHg 96%
    06:00 +25°C° 0 mm 1 m/s 758 mmHg 94%
    07:00 +26°C° 0 mm 1 m/s 758 mmHg 91%
    08:00 +27°C° 0 mm 1 m/s 759 mmHg 88%
    09:00 +28°C° 0.1 mm 1 m/s 758 mmHg 81%
    10:00 +30°C° 0.1 mm 1 m/s 758 mmHg 74%
    11:00 +31°C° 0.1 mm 1 m/s 758 mmHg 68%
    12:00 +32°C° 0 mm 2 m/s 757 mmHg 65%
    13:00 +34°C° 0 mm 2 m/s 756 mmHg 62%
    14:00 +34°C° 0 mm 2 m/s 755 mmHg 60%
    15:00 +32°C° 0.7 mm 2 m/s 755 mmHg 67%
    16:00 +31°C° 0.7 mm 2 m/s 755 mmHg 74%
    17:00 +30°C° 0.7 mm 2 m/s 755 mmHg 82%
    18:00 +29°C° 1.8 mm 2 m/s 756 mmHg 85%
    19:00 +28°C° 1.8 mm 3 m/s 756 mmHg 88%
    20:00 +27°C° 1.8 mm 3 m/s 757 mmHg 90%
    21:00 +26°C° 0.8 mm 4 m/s 757 mmHg 92%
    22:00 +26°C° 0.8 mm 4 m/s 758 mmHg 93%
    23:00 +26°C° 0.8 mm 4 m/s 758 mmHg 94%
    Arată mai mult